GFSFLT1_700_spd_057.txt.gz
Wind_Speed
28 40 47 42 32 29 35 30 25 27 27 26 29 30 28 27 26 23 19 17 12 13 13 13 13 13 10 7 8 7 7 7 8
26 37 46 40 41 30 30 32 23 23 27 26 26 28 27 27 27 26 23 19 15 13 10 13 16 15 12 10 9 9 8 9 8
32 31 43 36 37 43 35 32 26 25 27 30 25 26 27 26 27 26 23 22 19 16 12 13 11 14 14 12 10 10 10 10 10
36 38 42 22 36 40 42 36 35 27 23 31 33 29 28 28 28 29 28 25 23 20 18 18 14 10 10 11 10 10 10 11 12
28 32 35 23 14 44 44 42 38 35 29 26 32 32 30 29 28 28 31 29 25 23 21 21 18 14 12 11 11 11 12 13 12
32 36 36 29 13 6 26 37 39 35 37 29 29 34 34 32 31 30 31 31 28 26 24 23 22 18 14 15 14 13 13 13 14
17 27 36 24 18 8 18 35 45 36 35 36 27 32 33 32 30 30 30 31 31 30 28 26 24 22 19 16 16 15 15 14 14
13 20 17 27 32 20 20 33 47 35 34 35 34 30 30 25 30 29 30 31 31 31 31 28 26 24 22 22 20 19 18 16 15
4 9 14 9 13 21 31 30 27 45 34 39 37 32 29 25 22 29 30 29 30 31 29 30 30 28 27 25 24 21 20 19 17
15 7 13 11 3 3 17 39 27 38 27 36 32 34 31 29 26 23 29 28 28 28 30 29 31 31 29 28 25 24 23 22 21
27 21 10 3 5 9 11 36 41 45 46 51 32 26 30 30 32 27 24 28 30 29 28 30 30 30 31 30 28 25 25 24 24
30 22 21 15 9 9 3 13 15 39 54 53 40 32 28 29 30 30 25 23 22 27 29 29 30 29 30 31 29 28 26 26 27
36 26 28 29 21 14 9 6 7 15 33 39 38 20 22 26 30 32 29 25 25 22 21 24 28 29 29 29 29 28 27 27 28
46 31 44 39 25 18 11 9 14 21 9 34 26 24 20 24 28 29 27 28 29 27 24 23 22 26 29 29 30 30 29 28 29
49 42 39 54 34 22 10 15 16 16 17 20 28 31 30 33 28 32 34 32 31 32 31 29 27 26 26 29 30 30 30 30 31
54 50 45 51 50 36 31 18 18 23 29 28 32 35 36 36 33 30 36 37 35 34 35 33 31 31 31 28 29 29 29 29 30
44 56 54 45 37 45 38 25 22 19 27 34 37 43 44 42 39 32 34 39 40 38 36 37 35 32 31 33 33 32 31 31 30
47 45 50 47 43 47 52 41 31 27 23 33 37 37 43 41 38 36 32 35 39 41 39 38 36 30 27 28 28 31 29 29 29
39 42 46 41 44 46 51 55 38 33 32 31 35 39 37 44 44 41 38 36 34 38 40 40 39 31 30 31 29 26 26 30 29
42 42 40 43 43 46 48 56 52 48 40 34 36 36 36 40 45 46 43 41 39 37 36 41 42 35 33 33 32 34 30 28 26

GFSFLT1_700_spd_060.txt.gz
Wind_Speed
31 27 36 31 27 27 24 26 22 23 27 29 30 32 29 27 26 24 22 19 16 16 16 15 14 13 14 12 10 9 8 9 9
33 28 38 33 29 28 17 21 23 21 24 28 30 32 31 29 27 26 24 20 17 13 15 15 15 15 15 14 13 12 11 8 9
30 35 28 26 29 28 22 17 20 20 24 28 27 30 32 32 30 28 25 22 19 16 16 15 14 16 16 17 15 14 13 11 9
34 41 34 23 29 30 20 19 19 21 25 28 31 31 33 34 34 33 30 27 24 21 19 18 16 16 17 15 16 15 15 14 13
31 43 39 33 26 20 24 21 25 25 26 29 31 33 33 35 34 34 34 31 27 24 21 20 17 15 12 15 16 15 15 16 16
23 42 35 34 31 25 25 31 39 41 30 28 30 31 35 35 36 36 37 36 32 29 27 24 21 19 17 17 15 14 15 16 16
20 35 34 42 35 21 22 26 36 44 34 31 30 30 33 38 38 37 36 37 37 34 31 30 27 23 19 18 18 17 17 17 17
2 31 38 42 35 39 27 27 41 45 41 35 31 31 33 35 38 38 37 37 38 36 34 33 32 30 26 23 22 21 19 18 17
4 2 20 30 39 38 31 32 32 34 39 40 33 30 33 33 33 39 38 39 38 39 38 35 34 33 30 27 25 23 21 20 20
21 5 8 14 23 26 37 39 38 38 37 38 37 30 33 35 33 34 37 37 39 38 40 38 37 37 35 32 29 26 24 23 23
22 18 12 14 24 24 21 24 34 32 37 41 37 40 36 37 35 33 31 33 36 37 38 39 38 37 37 36 33 30 28 26 26
23 25 21 16 15 18 22 8 26 30 33 37 37 46 38 38 33 33 29 31 29 34 36 37 36 34 36 36 35 33 31 30 31
28 24 28 25 18 15 7 2 25 24 38 36 42 44 45 40 28 25 24 31 31 27 30 32 33 33 32 33 34 34 33 32 32
36 29 28 27 28 23 17 8 4 14 17 25 46 44 45 41 31 27 23 26 28 33 31 28 29 33 32 31 32 33 34 35 36
48 44 37 31 34 32 33 22 8 9 6 19 38 55 51 47 37 30 20 24 26 31 36 35 32 29 29 33 33 32 33 34 35
56 52 49 47 40 41 40 36 27 16 9 9 25 33 50 34 36 32 27 25 25 26 34 39 37 35 31 28 29 31 33 32 33
58 59 55 54 51 53 45 47 38 29 24 14 29 29 37 36 36 37 32 33 33 30 31 37 40 39 36 34 32 29 29 31 31
58 60 56 56 55 56 50 59 48 39 39 27 21 27 28 35 36 38 37 38 38 33 34 36 37 39 39 37 34 31 30 30 29
48 54 59 56 53 54 48 49 59 44 45 35 30 29 29 26 35 36 42 41 43 37 35 36 34 33 38 39 38 35 33 31 30
35 44 49 52 53 49 46 45 52 46 59 45 38 36 34 32 34 40 47 48 46 41 36 33 31 30 34 40 40 38 35 32 31

GFSFLT1_700_spd_063.txt.gz
Wind_Speed
22 26 23 28 31 22 22 21 16 17 21 20 22 23 26 23 22 21 21 22 19 16 14 12 11 11 9 7 7 6 6 7 7
23 28 33 18 26 25 22 23 17 17 16 18 21 24 27 26 23 23 21 19 20 18 15 18 14 13 13 11 9 7 7 7 7
21 22 34 25 30 23 20 20 17 17 16 17 19 23 27 28 26 24 23 22 21 18 13 19 17 16 16 15 12 10 9 9 8
24 23 30 32 26 30 25 18 21 20 19 18 21 24 25 29 29 27 26 25 23 20 17 17 16 17 17 16 15 13 12 12 11
9 21 24 34 31 32 32 32 25 24 23 22 21 20 24 27 29 30 30 28 25 24 21 19 17 16 18 19 16 16 16 15 13
6 15 25 35 34 42 35 31 29 29 26 25 24 21 24 27 29 31 32 31 29 27 25 24 23 21 20 17 18 17 17 18 17
5 13 16 31 35 41 33 31 31 28 30 31 32 30 25 28 30 30 31 32 32 31 29 28 27 25 23 21 19 18 17 19 19
7 15 21 28 33 39 37 35 36 32 31 39 41 39 34 28 27 27 29 32 33 35 34 32 30 29 27 24 23 22 22 21 21
9 7 14 27 33 37 39 37 37 38 31 31 38 38 35 30 29 27 28 31 33 35 37 37 36 34 32 30 27 25 23 23 23
7 10 3 10 22 38 37 33 43 30 26 28 33 35 33 30 31 30 29 29 33 36 38 39 39 38 37 35 32 29 27 26 27
15 12 12 10 10 18 32 37 43 37 28 25 29 32 29 31 31 31 30 28 32 34 37 39 40 40 40 39 37 34 31 29 30
22 22 21 21 17 14 10 13 29 37 34 35 36 37 37 35 33 31 28 28 32 31 35 36 38 39 41 40 38 37 35 33 34
29 27 27 29 32 25 13 10 10 14 24 24 31 40 41 38 37 33 31 26 26 32 32 31 33 35 36 37 37 37 36 37 36
38 35 34 33 32 33 27 16 11 14 15 21 25 32 32 36 35 33 32 27 26 29 36 32 31 30 32 33 32 34 36 37 39
44 46 42 40 42 39 34 31 21 19 20 25 23 34 36 38 40 39 36 32 28 28 36 37 34 31 28 32 33 32 33 35 38
46 49 52 46 47 47 49 35 33 29 23 19 13 21 28 36 37 40 38 32 32 33 34 38 37 34 31 30 30 31 32 33 34
48 50 54 54 53 52 56 55 55 37 32 25 21 16 16 24 22 34 41 40 37 35 31 36 40 37 35 34 32 30 29 29 31
45 51 52 55 57 55 54 51 60 57 44 39 34 26 21 29 26 27 33 40 42 41 34 35 37 37 34 36 35 34 32 30 29
37 44 46 50 57 59 55 57 52 61 58 50 42 35 27 27 33 34 39 41 40 38 33 34 34 28 30 32 35 35 35 36 37
28 31 35 43 49 56 54 54 58 58 65 66 57 41 36 31 29 29 46 35 41 43 35 33 32 31 33 34 32 33 36 37 38

GFSFLT1_700_spd_069.txt.gz
Wind_Speed
22 23 22 19 17 19 27 31 30 28 26 22 20 15 11 10 13 13 13 14 11 10 6 9 9 8 6 6 6 7 6 6 9
14 21 25 21 16 17 22 29 30 29 25 23 21 18 14 12 12 14 14 14 14 15 12 12 12 10 8 7 7 6 7 8 7
10 15 20 26 22 15 20 24 27 26 24 22 20 20 18 13 11 13 15 17 15 13 14 13 13 13 12 11 9 8 8 8 8
6 13 18 22 28 23 19 23 23 23 25 24 22 22 20 18 16 14 15 18 18 15 14 16 17 17 16 15 13 11 10 9 8
7 8 18 22 25 29 28 24 25 26 25 24 24 22 22 21 17 17 17 19 19 18 16 16 15 16 18 18 17 14 12 11 10
2 7 12 21 24 26 28 29 27 29 31 28 28 27 26 24 22 21 19 19 20 21 20 19 18 17 17 19 20 18 16 15 14
2 3 6 14 21 28 28 29 26 27 30 31 31 32 32 30 26 23 21 20 21 22 24 23 22 21 18 19 20 21 20 19 17
3 0 3 6 10 20 24 31 30 28 31 31 32 33 35 34 32 30 29 28 26 24 25 27 26 25 25 23 23 22 21 21 21
3 5 6 8 9 14 15 19 28 34 33 31 32 31 32 33 33 33 33 34 33 31 30 29 30 30 29 29 28 25 22 22 22
5 6 6 11 10 16 20 20 18 25 28 34 32 30 29 28 31 32 35 36 37 37 35 33 32 31 32 32 31 29 26 25 27
15 11 10 10 11 13 13 17 21 25 26 29 34 43 32 28 30 34 36 41 39 37 36 36 34 33 33 33 33 32 31 30 31
25 23 21 18 15 12 12 13 15 21 28 27 29 37 41 32 27 31 35 46 40 36 37 36 35 35 35 35 34 33 33 34 36
31 32 30 29 26 23 19 16 14 18 22 25 29 39 38 25 30 26 32 42 44 38 38 36 36 36 36 35 34 34 34 36 38
32 37 38 38 36 34 32 28 23 17 17 19 23 28 31 37 36 29 32 37 41 41 40 39 38 37 36 35 34 33 33 35 38
38 39 40 43 45 43 43 39 35 31 24 20 22 22 25 29 33 32 30 34 36 40 40 40 41 40 38 34 31 29 28 30 34
39 42 42 45 50 51 47 49 47 41 37 33 28 25 18 20 23 20 24 28 32 41 40 40 40 41 40 38 34 29 28 27 29
32 37 45 50 51 52 55 51 54 53 48 43 39 35 29 24 18 15 18 19 25 33 37 41 40 42 41 40 37 35 33 30 29
31 33 37 43 50 53 53 56 55 57 57 54 48 44 43 38 31 25 19 18 19 23 24 33 37 40 40 37 36 33 30 31 31
31 31 34 38 43 49 52 53 58 57 58 60 59 53 47 49 43 36 28 26 24 23 25 24 29 36 41 38 36 33 32 31 32
31 31 31 36 40 43 47 50 54 59 56 61 64 62 57 56 55 48 40 35 33 31 28 26 27 28 35 39 37 33 33 32 31

GFSFLT1_700_spd_072.txt.gz
Wind_Speed
19 22 21 20 19 24 30 33 31 29 26 25 22 18 15 13 14 15 15 13 11 10 8 6 3 4 5 3 4 4 5 8 10
14 19 21 21 19 17 23 32 31 31 28 25 23 20 17 15 13 14 15 15 15 12 11 10 7 6 6 4 5 5 6 6 8
13 14 17 20 19 17 17 23 30 30 31 28 24 21 19 17 15 14 16 18 17 16 15 14 10 8 7 8 7 7 6 6 7
10 19 20 27 23 20 18 18 22 28 29 29 28 25 23 22 19 16 15 17 18 17 16 16 14 11 11 10 10 10 8 7 6
9 12 20 28 19 26 23 19 22 27 29 29 27 25 25 22 20 20 19 17 17 18 18 16 17 15 14 13 13 13 11 9 8
8 10 14 23 31 34 32 31 33 29 31 31 30 31 28 25 25 23 24 20 18 19 20 18 18 17 16 13 15 16 15 13 12
7 6 10 14 20 25 27 32 32 35 38 37 34 34 33 32 28 28 27 25 22 20 21 22 21 20 18 17 16 18 18 17 16
8 6 6 7 14 18 24 27 27 34 32 35 37 35 35 32 32 31 30 27 27 23 23 23 24 24 24 23 21 20 20 20 19
9 9 9 9 10 10 13 18 24 33 33 32 38 37 36 35 34 33 35 32 30 31 27 27 27 29 29 28 26 25 22 20 21
10 9 11 12 11 13 14 14 16 20 32 36 34 35 35 35 36 35 35 35 37 37 35 32 33 32 33 33 31 30 27 24 25
13 12 11 11 14 14 14 17 18 19 23 24 25 32 33 34 31 33 40 39 36 35 35 38 38 36 36 36 35 34 32 29 30
21 20 19 18 16 14 16 16 16 19 19 23 22 24 35 30 31 31 31 33 35 37 42 41 40 38 37 38 36 36 35 35 36
27 28 26 26 26 24 22 19 18 18 18 21 21 26 26 34 42 43 50 32 36 36 40 47 45 42 39 37 35 35 35 37 39
29 32 34 34 32 33 34 31 27 23 21 22 24 28 33 31 34 46 48 34 29 34 36 45 47 43 40 39 36 34 34 36 39
30 32 35 38 38 38 38 40 39 36 31 28 25 25 25 32 31 44 51 48 46 38 37 39 45 45 44 39 37 36 35 35 37
24 27 30 35 40 43 43 42 43 46 45 41 36 30 28 25 29 30 43 52 52 44 40 42 44 47 46 44 40 37 34 34 35
24 26 27 27 32 38 44 47 47 46 48 52 50 44 38 32 33 34 32 35 34 34 34 31 41 47 47 46 45 41 37 35 37
24 26 29 31 30 31 36 42 50 54 52 51 56 57 51 46 40 34 34 31 28 28 28 31 42 42 46 47 46 43 42 41 39
23 24 28 32 33 32 34 36 41 48 55 55 53 57 62 58 52 46 42 39 35 30 28 30 37 32 31 42 47 46 46 43 40
23 25 28 31 34 35 34 35 38 40 48 54 56 55 58 65 64 58 55 50 44 39 35 31 31 34 28 29 39 44 45 43 41

GFSFLT1_700_spd_075.txt.gz
Wind_Speed
21 23 20 20 24 26 23 28 24 23 26 25 23 20 17 15 16 16 15 14 13 9 6 7 3 3 2 1 2 2 3 7 11
17 21 26 17 21 24 26 32 26 26 26 26 24 22 19 17 15 15 15 13 14 16 12 16 5 5 4 3 2 1 3 3 7
26 30 33 29 30 25 22 26 30 26 27 25 23 22 20 18 16 15 15 15 14 15 13 14 17 8 6 4 3 2 3 4 6
23 29 29 32 32 35 29 31 23 27 26 28 26 25 23 21 19 16 15 15 16 16 16 15 15 14 11 8 6 7 5 5 4
18 22 25 27 27 25 32 30 31 42 25 25 29 28 27 24 22 21 19 17 16 17 17 17 16 14 13 11 10 10 9 7 7
16 22 24 24 26 25 23 27 34 34 31 27 23 28 29 29 28 26 21 19 18 18 19 18 17 18 16 15 13 13 11 11 11
14 13 18 23 33 24 18 20 31 36 37 37 37 33 29 30 29 27 24 22 23 22 21 21 20 19 18 17 16 16 15 15 15
10 9 12 15 24 26 22 27 31 34 38 38 35 35 30 30 37 33 29 29 28 26 26 24 23 23 23 21 20 19 19 19 18
13 10 10 10 10 15 21 21 24 33 31 30 32 36 37 38 36 37 35 29 28 31 30 28 27 27 27 26 25 22 21 20 20
16 14 12 13 11 10 12 14 18 21 29 34 33 35 32 34 35 38 34 33 32 31 31 31 30 30 30 31 29 27 26 24 24
16 15 15 16 17 13 15 16 16 17 19 24 32 32 35 37 37 42 39 37 36 35 35 35 34 34 33 34 33 31 31 30 29
21 20 19 17 16 14 17 16 16 20 18 20 21 26 27 33 39 40 41 40 38 37 37 36 33 33 34 35 34 34 33 34 34
23 23 24 24 23 21 21 20 20 20 19 21 21 20 24 25 32 40 38 40 38 37 38 38 38 37 39 41 38 34 34 35 37
27 28 28 27 28 29 30 29 27 25 25 25 24 24 24 23 25 28 38 39 39 36 37 33 35 38 41 42 43 38 36 36 38
30 31 32 31 31 31 33 34 36 37 35 33 31 29 29 31 31 32 31 41 45 46 43 37 38 35 36 36 42 42 38 38 38
26 27 29 31 33 33 33 34 36 39 40 42 41 38 35 33 32 34 31 35 41 43 49 48 39 35 36 35 38 42 41 40 38
20 21 24 26 27 31 31 32 33 35 39 43 44 47 46 42 40 38 36 37 37 37 45 49 44 48 45 41 39 41 43 43 41
20 19 22 24 26 28 30 33 34 34 36 39 44 47 48 51 51 46 43 40 40 41 40 49 58 56 52 47 42 40 43 45 41
16 18 19 21 24 26 29 30 33 35 35 37 41 43 48 52 53 57 55 51 47 46 43 41 43 42 43 41 42 42 42 43 47
17 19 21 24 24 25 27 29 32 35 37 37 39 42 43 49 54 56 58 61 59 56 50 48 45 43 41 40 40 42 42 41 49

GFSFLT1_700_spd_078.txt.gz
Wind_Speed
20 23 22 25 27 31 27 26 27 17 22 22 23 23 21 20 18 18 16 12 9 11 7 6 7 3 3 2 3 3 4 4 9
28 30 29 26 26 28 28 27 26 24 18 23 22 23 23 20 18 18 19 15 16 11 6 5 10 8 6 4 4 4 1 2 5
33 35 33 24 33 34 20 21 29 25 20 24 24 23 23 22 20 19 20 17 16 12 14 7 15 11 8 6 4 4 2 2 6
30 33 30 23 25 29 30 33 38 40 25 18 28 26 24 23 21 20 19 17 15 12 11 11 14 10 8 7 6 5 3 2 3
24 26 26 23 15 28 39 30 31 28 32 26 24 28 25 24 23 22 21 18 16 15 13 14 14 11 10 7 8 7 6 6 4
19 20 18 24 24 29 24 22 35 44 39 35 29 27 28 26 26 25 24 21 18 17 15 15 15 14 13 13 12 11 10 10 9
18 18 18 19 22 26 25 22 18 30 32 36 26 28 32 34 32 31 27 23 20 18 17 16 17 17 16 16 15 16 15 14 13
14 17 16 18 21 22 27 23 23 19 17 27 30 24 33 32 28 31 30 23 23 21 21 20 18 19 19 18 18 18 16 16 16
13 12 11 12 17 23 28 28 22 20 11 27 30 30 33 34 22 19 20 23 27 27 24 22 23 23 22 22 21 19 18 17 16
13 12 12 10 10 11 11 13 17 19 21 28 18 36 32 30 24 24 21 26 31 28 26 24 25 26 26 25 23 21 21 21 20
13 15 14 13 14 13 13 11 10 10 16 19 26 29 35 36 30 34 34 30 31 31 31 29 28 27 28 28 26 25 24 25 26
15 16 18 17 16 16 16 13 14 15 13 13 16 21 26 33 36 37 33 33 34 33 33 32 32 30 28 29 28 26 27 29 30
22 19 18 17 16 17 18 16 18 17 15 16 19 18 20 23 27 33 33 34 35 35 37 37 35 32 31 30 29 28 29 31 34
22 22 23 23 24 26 26 24 23 22 21 22 22 21 21 22 22 27 31 37 35 34 35 38 39 40 40 38 34 32 32 34 37
28 27 27 26 27 27 27 28 29 30 30 30 29 27 26 27 26 25 26 28 30 33 39 38 42 41 36 35 34 32 32 33 37
31 30 31 30 29 27 28 29 30 31 32 33 34 36 36 35 33 31 31 33 33 31 35 39 44 43 42 38 37 36 36 36 34
24 27 26 27 23 24 25 26 26 28 31 33 35 36 37 39 41 41 40 39 36 37 36 34 37 46 46 48 47 44 42 35 34
22 20 23 22 22 23 23 24 25 26 27 29 31 32 34 37 40 43 46 48 46 45 43 41 39 38 39 39 45 51 49 45 43
16 17 19 18 19 20 22 23 24 26 28 30 31 32 33 35 37 39 44 48 51 53 52 48 47 43 43 40 39 44 40 40 42
16 17 20 14 18 20 22 23 24 26 27 28 30 33 35 36 37 38 40 43 50 54 57 58 55 52 48 45 41 42 43 40 42

GFSFLT1_700_spd_084.txt.gz
Wind_Speed
23 29 30 34 30 29 27 25 17 13 16 14 17 21 20 16 15 12 11 11 9 8 8 8 9 8 10 11 12 12 12 15 15
22 27 32 39 31 31 30 28 26 22 14 15 14 17 20 19 16 15 16 11 11 14 12 9 9 7 6 7 8 11 12 14 17
27 29 30 34 35 30 27 28 28 26 19 19 8 14 16 19 18 16 18 19 16 14 13 9 11 8 7 6 7 8 9 11 13
26 26 26 26 28 25 24 29 26 31 28 25 20 20 19 19 19 18 19 20 19 16 12 12 7 10 10 7 7 8 7 7 10
24 22 22 23 25 25 21 24 20 33 32 29 25 21 22 21 21 20 18 16 19 18 15 14 14 12 13 12 10 8 6 5 8
23 22 22 23 23 28 27 25 23 21 29 23 29 23 23 23 23 22 19 16 16 16 14 14 15 16 13 13 11 11 9 8 7
16 18 21 23 26 24 24 25 19 20 16 25 29 29 23 24 25 25 23 21 21 20 16 15 14 14 15 15 15 15 12 10 10
13 17 19 20 21 23 27 23 19 26 11 17 10 12 23 30 30 27 25 25 24 22 20 18 16 16 16 15 15 14 13 14 15
20 16 16 14 14 17 24 22 19 21 21 14 8 6 14 19 28 27 27 29 28 26 24 23 21 18 18 15 14 15 16 15 15
15 17 14 13 13 14 16 17 21 19 24 17 15 13 12 12 15 20 31 31 27 30 27 24 24 20 20 19 17 16 17 19 19
11 9 11 13 13 13 14 16 19 25 23 21 23 22 18 22 9 17 18 21 26 15 34 28 27 24 25 23 21 20 20 20 22
12 13 11 10 8 7 9 11 12 12 12 9 10 14 22 19 14 15 13 17 9 21 25 22 21 25 27 27 24 22 24 24 25
7 8 8 8 9 10 11 10 10 11 9 8 8 10 10 15 20 24 21 21 20 23 25 20 23 28 26 29 28 27 27 27 29
11 11 10 12 13 13 14 14 14 14 14 13 13 14 13 13 13 15 19 25 29 31 34 33 33 26 29 30 29 29 30 30 30
21 20 19 18 18 17 18 19 19 21 22 22 21 20 20 20 20 19 19 20 21 21 23 26 26 29 33 31 31 34 34 34 34
27 27 27 24 24 24 23 22 24 26 25 25 26 27 27 27 28 28 27 26 25 26 27 25 25 24 24 29 34 39 40 37 37
29 28 28 27 28 27 27 27 26 25 25 27 29 30 30 31 32 32 33 33 33 33 33 33 33 31 29 28 28 30 34 37 39
36 31 26 24 25 24 22 22 23 22 23 24 26 27 28 29 30 32 33 34 35 36 38 39 39 40 40 38 36 35 36 36 35
28 26 24 22 21 19 20 19 19 18 18 19 20 21 22 23 24 25 26 27 29 31 33 35 39 43 45 46 47 45 45 45 46
21 21 22 19 18 17 18 18 17 16 16 17 17 18 19 20 21 22 23 24 25 25 26 29 31 34 39 43 47 49 51 53 55

GFSFLT1_700_spd_087.txt.gz
Wind_Speed
27 30 30 29 31 28 22 18 15 13 11 10 11 12 12 16 15 12 11 13 13 11 8 7 5 5 7 10 11 10 12 14 17
31 31 34 36 34 29 26 22 18 17 12 9 14 14 11 15 16 14 12 12 14 12 10 7 7 6 7 8 8 10 13 14 18
31 29 29 31 32 30 28 26 20 22 25 15 14 13 14 16 17 16 16 18 12 8 10 8 10 10 8 8 8 8 10 13 15
34 30 23 28 31 29 26 26 26 31 26 30 21 17 18 19 19 19 17 17 16 13 12 12 12 12 11 10 8 8 8 10 14
26 23 21 20 24 28 28 21 21 18 18 23 22 26 22 23 23 24 22 20 18 17 15 14 16 14 12 10 7 7 7 7 10
21 18 21 22 24 24 22 26 13 21 27 28 23 36 25 23 24 24 24 23 20 19 19 19 17 16 13 10 12 12 11 10 9
16 21 21 21 22 22 24 28 26 24 18 17 19 27 30 25 26 26 25 23 22 21 20 20 20 18 15 14 14 14 14 13 12
17 13 17 22 24 23 24 24 23 24 20 14 11 14 14 19 28 28 27 26 24 23 21 20 18 18 19 18 17 16 15 16 17
18 15 14 19 20 23 25 25 23 22 20 14 10 9 5 9 16 32 29 29 28 27 26 24 22 21 21 18 17 16 16 17 18
20 21 22 21 19 20 22 24 24 21 20 24 17 16 13 12 12 21 35 27 27 31 30 28 27 26 23 21 20 19 18 19 20
10 11 14 15 14 15 17 18 19 18 17 19 22 20 18 13 11 12 19 20 35 39 33 30 33 28 25 23 23 23 23 22 23
8 6 9 11 12 12 11 11 11 13 15 17 22 24 22 21 22 18 16 14 16 18 31 36 33 28 27 24 26 28 25 25 26
12 11 9 7 7 7 9 12 13 13 14 14 13 10 10 15 22 23 21 15 15 15 21 19 20 29 28 27 28 28 27 29 29
14 12 11 10 10 10 11 12 13 14 14 15 15 14 12 12 13 16 21 26 18 23 26 25 25 28 25 33 30 30 30 30 31
10 8 9 9 10 13 15 16 16 17 17 18 18 18 17 17 18 18 18 18 21 28 31 32 32 31 31 35 36 39 34 32 32
17 16 17 15 15 17 20 22 22 22 22 22 24 24 25 26 26 25 25 24 24 24 26 26 26 28 25 26 32 37 40 41 39
20 20 21 23 25 25 25 25 27 28 29 30 30 30 30 30 31 31 31 31 31 32 31 31 30 30 31 30 29 30 32 34 39
23 25 25 29 32 30 26 26 26 27 28 29 30 31 32 32 33 33 34 34 34 34 34 34 35 36 37 36 37 38 37 37 38
27 29 29 28 26 27 29 29 28 26 26 27 27 27 27 28 28 29 30 31 32 33 32 32 35 37 37 38 39 38 40 42 44
25 24 24 23 23 23 25 25 24 24 23 22 21 21 21 21 21 21 21 21 21 22 25 26 26 28 30 33 34 37 40 40 40

GFSFLT1_700_spd_093.txt.gz
Wind_Speed
25 27 29 29 29 27 25 26 25 20 14 10 9 10 7 8 10 11 11 8 8 8 6 4 4 5 6 8 8 6 6 10 12
22 25 27 26 30 31 31 24 25 23 20 17 13 13 12 8 11 15 15 13 11 10 8 7 6 5 6 7 10 9 9 8 11
21 20 23 26 26 29 30 31 23 26 31 27 21 18 16 14 11 18 20 17 16 16 13 11 9 8 8 9 9 9 9 10 12
19 19 19 17 17 19 26 28 26 17 20 28 27 26 23 19 15 19 23 21 18 17 15 15 13 13 12 10 9 8 8 9 10
19 19 17 16 13 12 17 18 15 15 26 28 27 24 21 22 19 19 23 24 22 20 16 15 16 14 10 12 12 11 10 10 9
18 19 17 18 17 15 14 15 16 14 20 24 23 29 24 28 26 21 23 25 24 21 23 20 17 15 13 13 11 14 12 11 11
16 17 17 16 17 18 16 16 18 18 10 12 10 15 14 16 26 26 23 25 26 23 21 22 21 19 18 17 17 16 17 17 15
14 16 18 19 18 19 18 18 20 21 15 12 12 10 10 13 18 30 28 25 25 25 23 21 20 20 22 20 19 18 19 18 18
14 15 14 15 20 20 19 18 19 21 21 20 17 19 16 14 9 14 36 27 22 23 23 22 20 18 19 23 23 21 19 18 19
17 17 16 16 14 19 22 20 21 21 24 23 24 20 14 13 9 7 19 16 19 27 25 23 22 21 22 23 23 21 20 20 20
18 19 20 19 17 15 16 19 21 21 24 25 23 19 16 14 12 8 9 14 20 27 25 22 18 22 25 27 25 25 24 23 23
19 20 20 21 21 21 20 21 20 20 19 19 22 25 23 21 18 16 15 17 14 14 27 25 28 27 28 30 29 29 28 27 25
13 14 14 13 13 13 14 15 15 14 14 14 18 20 25 24 24 22 20 15 16 11 20 28 30 30 25 29 35 31 32 31 28
11 12 10 12 11 13 13 15 15 13 14 15 16 17 19 21 21 24 25 25 23 21 20 21 21 27 26 22 25 29 33 36 33
11 12 12 11 11 11 12 8 10 12 13 15 16 18 21 20 19 17 18 19 22 25 28 27 27 26 26 23 22 22 17 17 25
13 14 14 14 11 10 9 9 10 11 12 13 15 17 18 19 19 19 18 18 21 22 25 25 27 28 28 25 25 26 28 28 25
16 15 13 13 13 12 13 14 14 14 15 17 20 21 22 23 23 23 23 24 25 25 26 26 26 26 26 28 32 31 33 33 31
19 19 16 16 16 15 15 17 18 19 19 19 20 22 24 26 28 28 28 28 28 29 30 31 31 31 31 32 32 32 32 32 34
22 19 21 21 18 19 20 22 24 25 25 24 25 26 28 28 28 28 29 31 31 31 31 32 33 33 34 34 34 34 34 33 34
18 18 21 23 29 28 30 30 31 32 31 31 31 30 31 31 31 31 31 31 30 30 29 28 29 29 30 30 31 31 29 30 30

GFSFLT1_700_spd_096.txt.gz
Wind_Speed
30 31 27 28 30 28 27 25 21 19 16 14 12 12 12 13 13 13 11 10 8 10 7 7 7 8 9 8 8 8 7 10 13
23 27 30 31 31 28 23 25 25 25 22 19 16 17 13 11 12 14 15 11 10 10 10 9 7 7 8 8 9 8 8 8 12
20 25 28 28 29 29 28 29 27 29 26 26 22 21 19 17 13 14 17 17 16 14 14 10 10 9 8 8 10 10 11 11 10
19 26 26 28 26 24 24 29 30 25 32 32 26 24 21 20 18 16 17 20 19 17 17 15 14 12 10 9 8 9 9 10 11
20 22 21 22 23 20 17 17 24 23 23 29 34 32 29 25 24 18 17 20 22 19 16 15 16 14 12 13 13 12 12 12 11
22 25 25 24 22 23 19 14 9 17 13 22 26 31 32 30 26 24 20 19 23 23 20 18 15 14 15 13 14 14 14 11 10
22 24 23 22 24 24 22 19 15 17 16 14 14 30 29 14 30 26 32 22 23 25 23 21 21 19 17 17 17 14 12 12 12
16 18 20 21 21 23 23 21 18 22 20 14 13 12 2 7 7 9 21 30 22 24 24 24 20 22 22 21 20 18 16 15 15
14 15 18 20 21 21 21 21 20 22 24 20 20 18 12 10 13 14 16 26 27 21 24 24 23 22 21 20 22 20 19 18 18
15 16 16 17 17 19 21 23 23 25 27 25 23 17 9 12 16 16 13 16 35 28 22 21 22 24 23 22 19 19 20 19 20
20 20 19 19 19 18 18 21 22 23 25 26 26 23 21 16 17 13 6 10 18 31 28 27 24 24 22 19 19 20 22 22 22
18 19 19 19 19 19 17 17 20 21 21 21 23 24 23 22 21 17 11 10 13 17 20 24 29 26 20 20 19 23 26 27 26
15 16 18 19 21 22 21 21 25 26 20 17 19 27 27 26 24 23 19 17 16 18 18 18 28 28 28 27 22 18 25 29 29
15 17 17 16 15 16 17 15 15 15 19 20 19 20 23 26 26 26 25 24 23 20 19 14 20 25 25 23 23 19 17 25 30
12 13 13 14 14 14 17 17 18 18 17 20 20 24 24 24 24 19 20 21 26 27 26 25 22 21 25 24 22 23 20 19 19
14 15 15 16 16 15 14 12 13 16 17 14 14 14 13 15 16 18 19 20 21 19 22 25 27 29 31 28 28 28 25 22 22
14 16 20 20 19 18 16 14 12 11 11 11 13 15 17 18 19 20 20 21 21 21 22 24 24 25 26 26 26 25 27 28 29
17 18 19 19 19 18 18 18 18 17 17 16 16 17 17 20 22 25 25 25 26 26 26 27 27 28 30 30 31 30 29 29 30
19 23 24 23 22 22 22 21 20 21 21 21 20 20 20 20 22 24 25 26 28 30 31 31 32 32 33 32 33 32 32 31 31
21 24 26 28 27 26 26 25 25 24 25 27 27 27 26 27 28 29 29 29 30 31 30 29 30 31 32 32 32 33 32 31 30

GFSFLT1_700_spd_102.txt.gz
Wind_Speed
36 34 29 27 31 37 28 28 29 19 15 13 12 13 14 14 13 13 12 11 7 7 13 16 10 6 8 9 11 12 12 10 11
21 30 33 24 34 22 28 26 22 20 17 12 10 9 11 13 14 15 14 11 11 11 10 9 10 9 7 10 11 9 10 10 14
17 22 26 29 30 33 35 31 30 26 16 12 11 10 12 14 14 15 14 13 12 13 12 11 19 8 5 8 9 8 8 8 9
18 19 23 26 29 37 35 15 18 19 17 16 14 19 16 14 18 17 15 14 14 16 16 9 9 7 7 8 6 6 8 9 8
25 15 30 27 21 44 24 17 26 28 23 20 17 16 25 26 22 22 16 16 11 16 19 17 13 13 12 11 9 8 7 7 7
26 28 27 21 17 24 27 26 22 28 26 24 14 17 21 27 31 24 20 17 17 14 15 17 18 14 15 14 11 11 10 9 10
23 26 29 38 33 29 31 30 22 22 19 15 9 14 24 19 24 27 24 24 23 24 25 19 19 17 15 13 15 14 10 11 11
22 26 29 27 31 29 31 27 21 19 17 13 10 10 13 9 24 22 20 20 29 33 28 30 24 24 21 21 16 14 13 12 15
18 21 29 32 28 25 24 22 24 19 18 15 11 9 8 10 18 19 21 20 10 14 23 35 36 31 28 22 16 17 15 16 16
8 11 15 21 24 26 26 24 23 25 25 24 22 22 18 17 15 14 14 13 12 12 15 19 26 29 25 24 19 16 16 15 15
4 5 7 14 18 20 22 22 25 26 26 27 25 21 21 21 18 16 16 14 15 15 16 17 20 17 17 21 22 20 17 17 17
14 13 11 11 12 15 18 20 21 22 24 23 21 21 24 23 22 21 18 15 13 12 8 13 21 16 15 17 21 20 18 19 21
13 13 11 13 13 13 13 13 14 18 21 22 22 24 27 27 25 26 26 23 20 16 8 6 13 18 19 20 26 27 25 21 18
16 13 8 12 14 14 14 14 13 14 17 21 24 28 27 29 31 32 29 24 22 20 16 14 13 15 16 18 21 25 26 22 18
15 12 11 12 14 14 16 16 14 15 18 21 22 21 25 28 25 24 24 24 23 24 24 24 21 20 20 18 15 17 20 19 18
13 12 13 11 10 11 12 12 13 14 16 17 19 19 24 20 24 24 26 27 26 25 27 28 22 21 20 21 17 16 19 20 21
11 10 10 11 12 12 11 11 11 13 12 13 17 17 14 20 24 20 23 21 23 23 20 17 18 17 17 18 18 20 22 22 21
12 11 12 11 13 13 14 14 14 14 16 17 16 15 14 12 12 16 14 13 14 16 15 18 17 19 18 21 21 19 21 22 23
15 15 14 15 15 15 16 18 18 17 16 15 14 13 13 13 13 13 15 14 15 16 19 19 20 19 20 23 25 25 25 26 27
17 16 16 16 18 21 18 19 20 20 20 20 20 20 20 19 19 21 21 21 21 21 23 25 25 25 28 28 28 28 28 27 27

GFSFLT1_700_spd_105.txt.gz
Wind_Speed
44 38 36 35 26 31 34 24 13 11 10 13 13 13 13 12 12 12 10 8 5 4 6 6 9 5 8 9 10 11 12 7 13
43 37 31 32 30 31 36 33 22 19 12 14 12 11 11 12 12 13 10 9 8 6 3 5 7 4 5 9 10 9 10 13 15
39 36 31 32 34 32 42 34 24 18 18 14 11 10 9 10 12 12 12 12 12 8 9 7 8 8 7 7 8 7 8 10 9
21 30 29 45 35 35 35 33 24 21 20 18 17 11 12 10 13 12 13 13 13 10 10 8 5 4 6 6 6 5 6 8 8
24 16 27 33 42 36 22 30 26 21 15 15 17 18 15 14 15 14 14 13 12 9 11 11 11 10 10 10 8 6 6 7 7
19 24 28 33 23 29 20 34 22 20 25 19 15 16 20 20 19 19 18 15 15 12 10 13 11 14 12 11 12 10 11 11 12
22 22 21 20 26 18 25 29 34 17 21 17 19 18 23 22 21 23 22 21 15 13 16 19 16 13 15 15 15 13 11 10 12
19 17 22 24 21 17 20 30 28 17 17 18 17 19 19 17 16 19 15 23 20 15 20 26 22 20 20 21 21 13 11 13 13
20 20 19 19 20 20 25 9 17 18 18 16 17 18 17 12 10 13 17 16 14 12 14 13 22 29 27 28 26 18 14 14 15
27 28 26 24 23 24 25 22 20 22 22 22 22 17 14 14 13 11 9 10 11 9 9 14 17 15 23 29 32 25 15 14 16
16 19 20 23 24 27 26 23 21 19 20 23 23 22 19 18 19 16 13 12 11 11 13 15 11 11 13 16 20 28 31 20 17
11 6 4 8 12 14 18 21 21 21 20 21 21 21 21 20 20 20 18 14 11 11 11 14 11 9 7 9 10 13 17 19 19
5 2 6 9 9 11 13 15 19 20 21 17 20 20 20 20 22 22 23 21 20 17 16 13 8 6 11 11 12 16 19 23 23
3 3 4 7 10 11 12 13 13 15 15 16 18 20 23 24 25 27 27 24 24 21 19 18 13 9 10 15 17 17 20 24 25
5 1 3 6 8 9 11 12 13 13 15 14 17 17 22 24 25 26 26 25 25 21 19 19 19 18 16 15 16 19 19 14 19
1 2 3 3 5 6 7 8 10 12 13 16 19 20 20 21 22 24 23 21 20 22 20 23 25 25 23 20 17 17 19 15 18
4 2 3 3 3 4 5 5 5 5 7 7 8 10 12 15 15 17 21 22 21 25 19 25 22 21 19 16 14 13 18 19 20
6 5 4 5 6 6 7 6 7 7 8 9 9 10 12 13 13 12 13 16 15 11 12 13 16 18 18 17 15 15 18 19 20
15 10 12 9 8 8 9 9 9 10 9 10 10 11 11 11 11 10 10 10 10 12 13 13 14 15 14 19 19 20 20 22 22
9 13 13 11 13 11 9 10 11 13 14 14 15 15 15 15 16 16 15 16 16 17 18 19 20 19 20 21 24 25 26 26 25

GFSFLT1_700_spd_108.txt.gz
Wind_Speed
45 40 38 35 31 25 17 15 10 8 6 10 11 12 13 12 12 14 9 8 7 7 4 5 6 6 6 9 11 12 14 14 14
47 46 42 38 36 30 25 20 16 13 8 7 9 11 13 13 14 11 9 8 8 8 7 10 6 10 8 9 11 10 14 16 15
42 47 45 37 34 33 25 23 25 21 17 14 11 11 11 12 13 13 12 12 11 11 9 9 7 9 10 10 10 10 13 14 15
35 50 39 42 36 41 29 27 26 26 21 15 14 13 14 13 11 13 14 13 12 12 10 10 9 9 14 10 7 7 10 11 11
22 42 43 29 33 33 32 31 32 33 35 23 21 23 21 18 16 11 14 12 13 13 14 13 11 9 9 8 8 9 9 9 10
28 32 33 31 37 34 34 30 20 25 31 23 23 27 28 17 19 13 14 14 13 14 12 11 10 12 14 15 12 14 12 12 11
28 27 30 35 25 35 41 30 18 31 23 23 24 21 19 19 12 13 13 17 17 17 15 15 15 14 15 15 13 14 14 15 16
20 24 25 20 21 32 24 32 38 24 28 27 33 30 21 17 16 15 17 20 25 22 17 16 19 21 20 18 18 17 14 17 17
19 19 20 25 24 21 24 30 35 32 42 25 28 24 21 16 17 16 12 10 10 20 16 17 17 17 24 24 21 24 23 18 20
16 17 21 20 21 22 30 12 21 37 27 25 24 21 22 19 13 10 7 9 12 12 13 14 14 13 14 21 24 23 25 26 19
18 23 19 19 20 20 21 20 15 17 26 20 21 22 21 17 13 13 14 12 10 13 12 12 12 13 13 16 18 20 20 24 19
8 13 21 20 22 22 23 23 20 19 17 20 21 24 24 21 19 18 16 16 14 12 10 10 11 10 12 13 14 14 14 20 24
2 4 12 14 15 20 22 22 20 20 23 21 20 24 25 22 21 18 18 20 19 19 18 15 12 12 11 13 11 11 12 13 16
4 2 4 7 8 10 14 18 21 23 24 24 23 24 23 21 20 19 20 22 24 23 22 19 16 15 13 12 16 17 17 18 19
4 9 3 2 4 6 8 10 12 15 18 19 22 23 24 22 20 22 23 23 25 25 25 22 16 18 17 14 16 17 18 19 21
13 17 10 8 7 6 7 8 9 10 12 15 17 19 22 19 19 18 22 21 22 19 16 14 17 20 19 21 22 23 23 22 21
13 14 11 10 12 11 8 8 7 7 9 11 13 14 16 18 17 13 15 16 16 17 17 19 22 22 23 24 23 17 21 21 18
6 10 9 10 9 9 9 9 8 9 9 10 11 12 12 12 12 12 11 12 12 15 15 13 14 14 15 16 18 20 21 19 19
10 8 6 11 9 9 8 8 9 10 9 9 10 11 11 12 13 13 12 12 12 13 13 14 14 16 17 18 18 19 21 20 23
11 8 9 6 12 12 12 11 10 11 11 12 13 13 13 14 14 14 14 14 14 15 15 16 17 19 19 19 20 21 23 25 25

GFSFLT1_700_spd_111.txt.gz
Wind_Speed
40 43 39 34 26 21 18 15 17 11 9 12 15 15 14 10 12 13 12 9 11 10 9 10 9 10 12 12 11 11 13 15 15
39 42 42 39 33 24 21 22 20 14 9 7 11 13 14 13 13 13 11 11 11 12 10 11 7 11 12 11 13 13 15 16 15
33 39 43 43 38 31 24 23 19 15 15 11 10 11 13 14 15 15 15 14 14 12 11 8 10 9 12 11 12 13 15 16 17
37 41 45 41 40 34 29 23 24 21 18 18 13 14 14 15 15 17 17 17 17 14 13 11 11 11 12 12 10 10 11 14 17
27 37 43 40 40 32 31 27 25 22 24 20 18 17 18 18 17 18 16 14 14 15 16 14 13 11 8 13 12 10 10 11 14
19 34 42 41 35 33 33 30 33 26 28 26 26 23 23 22 21 21 19 18 16 16 15 15 16 17 16 15 15 12 12 11 12
15 13 28 27 32 33 33 33 37 34 27 32 39 33 29 20 24 19 18 16 20 15 17 18 16 16 15 15 17 16 15 16 16
15 20 19 12 24 26 29 32 29 27 20 29 31 30 28 26 20 13 11 10 11 18 19 20 17 15 16 18 18 19 18 17 18
16 19 22 19 10 23 20 25 27 33 30 30 25 29 28 27 22 18 15 12 12 14 24 23 19 17 18 20 24 24 22 21 19
18 19 24 28 31 16 18 13 25 28 34 35 31 34 34 27 20 18 12 10 9 11 10 10 9 11 15 18 21 27 25 23 24
12 13 16 21 28 32 35 23 18 19 27 34 30 31 21 16 17 18 16 11 9 8 10 10 11 12 14 13 17 20 26 30 28
2 13 19 21 20 22 23 25 24 14 14 25 36 23 21 22 20 18 14 13 13 12 11 11 10 13 13 12 13 14 19 22 21
6 1 11 20 22 20 21 20 23 23 18 24 16 30 27 21 22 19 17 16 16 17 16 16 16 13 13 11 11 11 9 9 12
8 10 5 3 10 15 19 20 20 21 20 19 15 16 17 22 23 21 19 18 19 21 20 18 17 17 16 13 13 14 13 13 14
1 5 6 3 3 7 9 11 13 18 21 20 18 17 17 17 18 17 19 22 21 21 21 21 19 17 17 17 16 14 16 17 18
12 13 7 5 4 6 7 9 10 13 15 18 18 20 21 19 22 23 22 11 14 19 17 15 16 17 17 18 20 22 23 23 25
13 14 11 12 10 7 7 8 9 10 12 14 16 16 17 18 18 19 20 19 22 25 16 16 17 19 20 24 25 25 28 27 27
7 10 11 10 9 8 7 7 8 8 10 10 10 11 12 13 15 15 16 16 17 16 19 19 18 19 20 19 21 21 22 23 22
2 6 11 13 12 12 11 9 8 8 8 8 9 9 9 10 11 11 13 13 14 15 15 15 16 15 15 17 19 20 22 23 23
6 7 5 6 14 13 13 12 11 11 11 11 11 10 11 11 11 12 12 12 13 13 14 14 15 17 18 18 20 21 21 23 24

GFSFLT1_700_spd_114.txt.gz
Wind_Speed
50 44 39 34 30 24 21 16 14 11 12 16 13 14 14 15 13 12 14 11 11 10 12 13 12 13 15 14 13 13 11 12 13
49 45 40 38 37 31 24 19 18 16 11 13 16 16 16 15 14 15 14 12 11 13 13 13 13 13 14 15 15 14 15 13 13
47 48 44 42 37 33 28 21 19 16 15 11 12 16 17 17 17 16 15 14 13 13 13 13 15 11 15 15 14 15 15 15 14
25 36 32 43 37 36 30 26 24 20 17 16 14 13 15 16 17 18 17 17 17 16 14 14 12 13 14 15 14 15 15 17 17
17 26 34 39 37 37 35 32 28 24 19 19 16 14 14 17 18 18 19 19 20 19 17 16 14 15 15 14 20 15 13 14 16
17 21 36 41 41 43 38 36 32 27 22 24 24 22 19 17 17 16 16 19 22 23 22 18 17 17 17 14 12 13 13 13 13
11 16 27 38 37 35 35 36 33 30 26 27 25 29 26 22 19 20 20 21 24 27 24 20 19 19 18 16 17 17 17 17 17
8 7 10 28 32 32 22 31 30 31 32 32 28 28 30 34 28 25 24 25 22 30 25 21 19 19 18 17 16 16 18 19 17
11 18 17 13 17 30 27 29 28 30 30 35 28 24 28 30 31 27 19 23 25 14 24 25 26 24 22 19 17 19 24 22 21
9 15 20 14 16 23 23 23 22 25 29 28 27 24 23 27 26 24 28 17 14 13 13 10 18 23 25 19 14 19 21 25 25
10 13 16 23 20 19 16 17 21 19 24 25 24 25 28 26 25 29 21 16 14 12 11 10 10 4 9 12 14 15 19 22 28
10 12 15 16 20 30 31 31 30 25 20 15 23 23 30 31 18 19 19 17 15 14 12 14 13 11 10 10 11 12 13 16 21
7 7 12 20 21 22 23 22 28 32 16 16 18 20 26 25 20 24 21 20 18 18 18 13 14 13 10 12 11 9 9 10 11
4 3 4 6 16 21 20 18 19 18 22 19 22 17 24 27 33 22 19 18 19 18 18 14 15 18 17 16 16 13 11 11 11
3 4 6 3 3 7 13 17 20 21 21 23 21 17 21 26 35 22 16 14 15 10 15 20 22 23 21 19 18 17 16 15 15
13 15 2 2 2 1 3 6 10 12 16 16 15 13 12 13 27 10 11 18 22 18 19 20 20 21 21 21 20 19 19 20 21
13 13 15 12 7 6 5 5 7 8 9 10 12 13 14 19 16 20 25 22 15 17 19 20 18 17 17 18 21 23 25 25 25
2 7 13 8 5 5 6 5 5 4 5 6 6 7 9 11 12 15 19 23 19 22 24 25 20 19 19 22 24 26 29 27 25
1 2 5 6 4 5 7 8 8 6 5 5 6 6 7 7 8 9 11 13 14 16 16 18 19 20 20 20 19 19 20 20 21
5 5 1 4 8 8 7 7 8 10 11 11 11 12 12 12 13 13 14 15 15 15 15 16 16 16 17 18 19 19 20 20 21

GFSFLT1_700_spd_117.txt.gz
Wind_Speed
40 38 39 37 33 31 24 18 15 12 13 18 19 20 18 17 16 14 14 13 12 12 12 13 13 13 13 13 14 13 12 12 13
38 36 41 38 35 31 29 23 17 13 12 16 19 19 19 18 18 15 15 15 12 12 13 13 14 14 15 15 17 16 16 15 14
40 39 41 40 36 30 31 26 20 16 16 14 17 18 19 18 17 17 18 16 15 14 16 16 15 14 14 16 17 17 16 15 16
39 51 46 40 38 34 32 28 24 19 19 17 16 19 20 19 18 19 18 17 18 17 17 16 16 17 17 15 17 16 15 16 16
8 31 44 41 38 38 38 35 29 25 21 19 16 15 15 17 19 19 19 19 19 19 18 19 19 18 16 15 16 18 17 16 16
8 15 14 33 42 42 38 37 34 29 26 21 18 19 15 15 15 17 17 19 21 22 21 22 22 21 19 18 17 17 18 17 16
16 23 23 23 34 35 43 41 38 33 31 27 24 24 23 23 19 17 18 18 19 20 22 24 25 24 24 21 20 19 18 19 18
14 14 21 26 34 33 37 44 45 39 37 34 29 28 27 28 27 24 23 22 23 24 23 25 29 29 27 25 23 20 20 21 21
10 11 10 12 26 37 36 39 42 40 38 36 34 30 34 34 32 34 35 29 29 28 31 29 28 30 29 25 22 21 20 19 21
15 13 10 10 17 34 36 35 33 38 38 37 33 35 38 34 32 34 38 35 33 21 30 36 30 31 31 34 27 23 18 20 23
14 16 14 8 13 16 24 25 23 22 23 24 28 32 33 32 29 32 29 27 32 23 23 24 25 22 23 11 27 16 17 21 22
9 11 16 14 13 8 15 17 19 22 19 13 13 20 26 26 30 30 25 26 31 27 20 18 17 13 10 8 6 6 13 16 17
6 8 11 14 20 17 24 25 21 21 24 20 19 18 20 26 24 27 25 20 29 28 22 20 19 16 12 12 11 11 12 12 13
4 2 5 9 17 18 19 21 23 27 23 21 21 14 15 16 18 25 28 28 26 23 23 25 22 17 18 17 15 15 15 15 12
6 5 4 5 5 11 18 19 17 18 18 17 20 20 21 22 13 20 26 22 21 11 16 12 3 11 19 20 20 20 18 16 17
9 7 5 3 5 4 4 7 11 15 17 17 17 19 12 12 12 5 23 16 11 7 9 14 15 19 22 20 20 21 21 21 20
6 8 10 7 1 0 2 3 5 7 7 7 8 5 5 11 16 11 17 6 12 17 14 17 15 17 18 20 22 21 21 20 21
2 4 4 2 1 2 2 1 1 3 4 5 8 10 12 11 9 15 14 17 19 19 15 18 15 17 22 23 24 22 24 24 25
4 2 2 2 2 2 2 1 2 3 3 3 4 5 5 6 9 12 14 15 18 20 21 21 24 26 23 23 22 22 23 23 23
8 7 5 3 5 6 6 4 4 4 4 4 5 6 6 7 7 8 10 12 14 16 17 18 19 19 20 20 20 20 19 19 20

GFSFLT1_700_spd_123.txt.gz
Wind_Speed
29 34 35 32 30 28 29 26 26 21 15 21 24 23 22 22 20 18 17 16 14 13 11 16 18 13 13 13 13 15 15 14 15
25 40 33 40 32 30 29 30 29 23 16 17 23 24 24 23 21 19 18 19 17 14 13 13 12 12 12 12 13 14 13 14 13
18 25 26 30 33 35 31 29 28 23 19 16 20 25 26 26 25 22 20 19 16 16 16 15 14 15 14 13 13 13 14 15 16
20 22 28 32 43 37 33 34 30 25 21 18 19 23 25 25 24 24 23 21 19 17 16 15 15 15 14 14 14 14 14 16 16
10 21 23 33 36 34 34 36 31 28 24 20 18 23 26 27 26 25 24 22 19 18 18 17 16 15 16 15 16 17 17 16 17
10 18 21 39 41 45 39 35 32 30 27 24 21 20 24 25 26 25 22 21 20 20 20 19 19 17 16 16 17 17 16 16 19
9 23 14 42 46 32 40 30 32 33 32 29 25 22 20 22 24 24 22 21 20 21 21 21 21 20 20 19 20 21 20 19 21
15 10 8 25 36 40 31 31 36 37 33 35 30 27 24 21 20 20 20 19 18 19 20 21 21 22 21 22 24 25 24 22 23
12 16 13 18 19 26 27 43 38 39 41 34 33 34 28 27 26 26 22 22 22 21 21 22 23 24 24 25 25 26 26 27 28
11 14 22 22 23 28 37 32 53 41 45 43 40 35 33 33 30 29 29 27 27 27 28 27 27 29 29 31 34 31 31 31 32
14 16 16 10 14 13 21 32 42 53 43 39 43 41 39 38 36 34 34 35 33 32 32 32 35 36 37 36 34 32 35 33 32
12 9 11 4 1 4 2 6 26 35 38 47 45 46 36 41 38 38 37 40 34 34 32 41 38 39 37 38 37 33 33 33 34
8 14 10 4 2 3 6 7 5 26 17 26 33 41 33 31 30 26 29 34 34 34 32 34 41 36 34 33 26 25 26 22 24
7 9 14 9 13 6 6 7 6 4 3 6 20 20 23 27 25 20 24 15 16 30 23 23 22 19 25 28 24 15 9 8 10
8 9 6 7 12 4 9 13 15 15 13 11 8 9 6 10 17 10 8 9 6 6 19 24 25 24 19 20 25 25 15 11 10
3 1 1 3 4 1 4 9 11 14 16 15 11 16 15 17 12 3 11 8 10 15 17 21 7 6 10 8 9 6 9 5 13
1 4 2 2 3 6 5 5 4 11 10 9 9 10 8 9 9 12 14 5 4 3 5 4 5 8 3 5 10 1 2 7 14
7 7 2 3 3 5 6 8 8 8 7 7 6 5 3 2 5 6 8 9 7 6 5 5 7 2 9 11 7 5 12 16 22
2 2 5 6 6 6 8 10 10 10 9 9 8 7 4 4 3 1 1 5 9 10 11 8 8 10 12 13 14 17 19 21 21
5 4 5 7 7 8 7 8 9 9 8 8 6 5 4 4 3 1 1 2 5 8 7 8 9 10 10 11 13 14 15 16 17